Погода в Певеке

Погода в Певеке : погода сейчас, прогноз погоды и архив. Всё, что Вы хотите узнать о погоде в Певеке!

Хотите узнать прогноз погоды в Певеке? Тогда Вам сюда: Погода в Певеке

Поиск расширенной информации на нашем сайте:

Другие новости

Новости СМИ2

Главная страница сайта

Новости сайта

02.10.2013

Напоминаем, что на нашем новом сайте вы можете получить высокодетализированные прогнозы погоды по пунктам России, СНГ и мира (включающие важные для авиации метеовеличины, такие как направление и скорость ветра, видимость, явления погоды, количество и форма облачности, нижняя и верхняя граница облачности), а также ознакомиться с разнообразными материалами по авиационной метеорологии и подборкой полезных ссылок на эту тему.

Сайт Метеоцентр.Азия посвящён разработке технологий оптимизации авиаметеорологического обслуживания, включая проектирование и перспективное создание нескольких автоматизированных авиаметеорологических систем:
- система выпуска высокодетальных прогностических карт явлений погоды для нижнего воздушного пространства по России и ближнему зарубежью;
- система верификации прогнозов TAF (выпускаемых синоптиками официальных АМСГ РФ и ближнего зарубежья) и AUTOTAF (выпускаемых сайтом Метеоцентр.Азия) - выявление ошибок, онлайн-сопоставление с фактической погодой METAR, автоматическое внесение коррективов в прогнозы при резком отклонении фактической погоды от прогноза, подсчёт оправдываемости прогнозов по элементам и в целом;
- система обработки, анализа и отображения авиаметеорологической информации для применения провайдерами метеорологической информации.

Рекомендуем: антигравийная пленка цена

Погода в Певеке - сегодня

Время (UTC), дата Ветер
(°,м/с) 
Видим.   Явления Облачность Т
(°С)
Тd
(°С)
f(%) Тe
(°С)
Pmin
(гПа)
dP
(гПа)
Po
(мм)
O2
(г/м3)
Тmin Tmax R s Состояние
почвы
12 20.06.17 040 (СВ) 2{04}  20000 м  слаб. ливневой дождь  10/8 300 м кучево-дожд., средняя 
[Cb cap|Ac und]
+2.8 +1.6 92 +2  1001  0.1  750  299           
15 20.06.17 340 (С) 3{05}  20000 м  слаб. дождь{ливн. осадки}  10/3 300 м средняя 
[Frnb|As op]
+2.2 +1.5 95 +1  1000.3  -0.7  750  299           
18 20.06.17 310 (СЗ) 4{06}  10 км  дождь{ливн. осадки}  10/3 300 м средняя 
[Frnb|As op]
+1.6 +1 96 -1  1001.6  1.3  751  301           
21 20.06.17 310 (СЗ) 3{07}  20000 м  {дождь}  10/3 200 м средняя 
[St|Ac und]
+2 +1.1 94 +1  1003.8  2.2  752  301  +1.5    14     
00 21.06.17 310 (СЗ) 2{05}  20000 м  {дождь}  10/3 300 м средняя 
[St|Ac und]
+3.2 +1.9 91 +3  1006.1  2.3  754  300           
03 21.06.17 300 (СЗ) 1{03}  20000 м    9/3 300 м средняя, верхняя 
[St|Ac trans|Ci fib]
+4.6 +2.2 84 +5  1007.3  1.2  755  299           
06 21.06.17 040 (СВ) 3{04}  20000 м    8/0 верхняя 
[Ci]
+2.3 +0.1 85 +1  1008.8  1.5  756  302           
09 21.06.17 030 (СВ) 3{04}  20000 м    ясно 
+2.2 -0.2 84 +1  1009.4  0.6  757  302    +4.9       
12 21.06.17 050 (СВ) 3{04}  20000 м    4/0 верхняя 
[Ci]
+1.8 -0.3 86 1009.7  0.3  757  303           
15 21.06.17 050 (СВ) 2{04}  20000 м    8/0 верхняя 
[Ci]
+1.2 +0.1 92 +1  1009.8  0.1  757  304           
18 21.06.17 тихо () {03}  20000 м    3/0 верхняя 
[Cc]
+1.9 +0.7 92 +2  1009.9  0.1  757  303           
21 21.06.17 240 (ЮЗ) 1{02}  20000 м    8/0 средняя, верхняя 
[Ac und|Ci sp]
+4 +0.8 80 +5  1009.9  757  300  +0.1         
00 22.06.17 040 (СВ) 2{03}  20000 м    8/0 средняя, верхняя 
[Ac trans|Ci sp]
+5.3 +0.6 72 +5  1009.4  -0.5  757  299           
03 22.06.17 040 (СВ) 3{04}  20000 м    10/0 средняя, верхняя 
[Ac und|Ci sp]
+7.9 -7.8 32 +7  1008.4  -1  756  297           
06 22.06.17 040 (СВ) 3{05}  20000 м    9/0 средняя, верхняя 
[Ac und|Ci sp]
+9.6 +0.2 52 +9  1007.2  -1.2  755  294           
09 22.06.17 040 (СВ) 20000 м    10/3 600 м средняя 
[Cu hum|Ac und]
+9.8 +2.9 62 +9  1006.4  -0.8  754  293    +10.2       
12 22.06.17 030 (СВ) 2{06}  20000 м    10/6 300 м средняя 
[Cu hum|Ac und]
+9.9 +4.9 71 +10  1005.4  -1  754  292           
15 22.06.17 тихо () {04}  20000 м    10/4 600 м средняя 
[Cu hum|Ac und]
+10.4 +7.4 82 +10  1004.7  -0.7  753  291           
18 22.06.17 220 (ЮЗ) 3{04}  20000 м    10/4 600 м средняя 
[Cu hum|Ac und]
+5.6 +3.9 89 +5  1005.4  0.7  754  297           
21 22.06.17 250 (З) 4{05}  20000 м    10/0 средняя, верхняя 
[Ac trans|Ci sp]
+5.3 +2.8 84 +4  1006.8  1.4  755  298  +4.8         
00 23.06.17 220 (ЮЗ) 2{05}  20000 м    4/0 средняя, верхняя 
[Ac trans|Ci sp]
+6.9 +2.8 75 +7  1007.7  0.9  755  296           
03 23.06.17 040 (СВ) 3{04}  20000 м    4/0 средняя, верхняя 
[Ac trans|Ci sp]
+7.3 +0.2 61 +7  1007.3  -0.4  755  296           
06 23.06.17 240 (ЮЗ) 1{04}  20000 м    1/0 верхняя 
[Ci fib]
+8 +3.8 75 +9  1006.2  -1.1  754  295           
09 23.06.17 100 (В) 1{06}  20000 м    ясно 
+9.4 +4 69 +10  1005.1  -1.1  753  293    +11       
12 23.06.17 140 (ЮВ) 12-15{16}  20000 м    10/0 средняя, верхняя 
[Ac lent|Ci sp]
+11.8 +6.5 70 +9  1003.5  -1.5  752  289           
Время (UTC), дата Ветер
(°,м/с) 
Видим.   Явления Облачность Т
(°С)
Тd
(°С)
f(%) Тe
(°С)
Pmin
(гПа)
dP
(гПа)
Po
(мм)
O2
(г/м3)
Тmin Tmax R s Состояние
почвы

Для получения пояснительной информации подведите курсор к названию столбца.

ПОГОДА в Певеке - архив

Всё, что Вы хотите узнать о погоде в Певеке - удобно и подробно!

Выберите нужную дату (начиная с 1 января 2015* года) и нажмите кнопку "Найти".
Будут отображены архивные сводки погоды по пункту Певек, начиная с указанной даты.


Отображать данные в формате CSV (для использования в таблицах Excel)


Внимание! Наш архив погоды предназначен исключительно для личного некоммерческого использования в познавательных целях. Если Вам необходимы официальные справки о состоянии погоды (для производственных, юридических, коммерческих и т.п. целей), обращайтесь в органы Росгидромета.

*Примечание: данная дата относится к архиву по метеостанциям СССР (Россия, СНГ, Балтия).
Архив по метеостанциям Зарубежной Европы и Азии (кроме Китая) хранится 10 дней, по другим регионам земного шара (Китай, Африка, Америка, Австралия, Океания) - 1 день.

Певек - район местоположения метеостанции


Название, широта, долгота, высота метеостанции:
Певек 69.7°ш. 170.3°д. 6 м над ур. моря [Российская Федерация]

Дополнительная информация

В oтличие oт бoльшинства пoгoдных сайтoв мы публикуем пoдрoбную метеoинфoрмацию в детальнoм прoфессиoнальнoм фoрмате.

Характеристики температуры и влажнoсти вoздуха измеряются на высoте 2 м в тени вдали oт зданий и деревьев.
Скoрoсть ветра измеряется на высoте 10 м (на урoвне рoста челoвека скoрoсть ветра ниже в 1.5-2 раза). Если метеoстанция нахoдится в гoрoде или в лесу, тo скoрoсть ветра занижена на 2-4 м/с пo сравнению с oткрытым местoм. Скoрoсть ветра над акватoриями крупных рек и oзёр, а также на вершинах хoлмoв на 2-5 м/с выше, чем в oбычных услoвиях.
Атмoсфернoе давление в разных тoчках местнoсти мoжет значительнo oтличаться oт давления на метеoстанции, в зависимoсти oт услoвий рельефа (при пoдъёме на 10 м давление пoнижается примернo на 1 мм рт.ст.).